﻿測定場所 (Monitoring sites),日付 (Measurement date),時間 (Measurement time),線量率 最大値 (max) μGy/h,線量率 最小値 (min) μGy/h,線量率 平均値 (average) μGy/h,
新宿 (Shinjuku),2011-07-24,23:00～23:59,0.0593,0.0528,0.0570,
新宿 (Shinjuku),2011-07-24,22:00～22:59,0.0596,0.0534,0.0569,
新宿 (Shinjuku),2011-07-24,21:00～21:59,0.0598,0.0543,0.0571,
新宿 (Shinjuku),2011-07-24,20:00～20:59,0.0599,0.0543,0.0570,
新宿 (Shinjuku),2011-07-24,19:00～19:59,0.0602,0.0545,0.0571,
新宿 (Shinjuku),2011-07-24,18:00～18:59,0.0596,0.0546,0.0571,
新宿 (Shinjuku),2011-07-24,17:00～17:59,0.0596,0.0547,0.0575,
新宿 (Shinjuku),2011-07-24,16:00～16:59,0.0601,0.0547,0.0577,
新宿 (Shinjuku),2011-07-24,15:00～15:59,0.0604,0.0551,0.0573,
新宿 (Shinjuku),2011-07-24,14:00～14:59,0.0603,0.0554,0.0577,
新宿 (Shinjuku),2011-07-24,13:00～13:59,0.0605,0.0549,0.0577,
新宿 (Shinjuku),2011-07-24,12:00～12:59,0.0601,0.0551,0.0575,
新宿 (Shinjuku),2011-07-24,11:00～11:59,0.0606,0.0551,0.0577,
新宿 (Shinjuku),2011-07-24,10:00～10:59,0.0604,0.0546,0.0579,
新宿 (Shinjuku),2011-07-24,09:00～09:59,0.0605,0.0554,0.0576,
新宿 (Shinjuku),2011-07-24,08:00～08:59,0.0608,0.0541,0.0581,
新宿 (Shinjuku),2011-07-24,07:00～07:59,0.0612,0.0548,0.0577,
新宿 (Shinjuku),2011-07-24,06:00～06:59,0.0604,0.0551,0.0577,
新宿 (Shinjuku),2011-07-24,05:00～05:59,0.0603,0.0549,0.0578,
新宿 (Shinjuku),2011-07-24,04:00～04:59,0.0605,0.0546,0.0572,
新宿 (Shinjuku),2011-07-24,03:00～03:59,0.0610,0.0548,0.0575,
新宿 (Shinjuku),2011-07-24,02:00～02:59,0.0596,0.0548,0.0574,
新宿 (Shinjuku),2011-07-24,01:00～01:59,0.0598,0.0548,0.0574,
新宿 (Shinjuku),2011-07-24,00:00～00:59,0.0605,0.0542,0.0577,
新宿 (Shinjuku),2011-07-23,23:00～23:59,0.0611,0.0561,0.0579,
新宿 (Shinjuku),2011-07-23,22:00～22:59,0.0603,0.0548,0.0574,
新宿 (Shinjuku),2011-07-23,21:00～21:59,0.0619,0.0547,0.0574,
新宿 (Shinjuku),2011-07-23,20:00～20:59,0.0592,0.0548,0.0572,
新宿 (Shinjuku),2011-07-23,19:00～19:59,0.0602,0.0549,0.0570,
新宿 (Shinjuku),2011-07-23,18:00～18:59,0.0595,0.0543,0.0573,
新宿 (Shinjuku),2011-07-23,17:00～17:59,0.0600,0.0551,0.0576,
新宿 (Shinjuku),2011-07-23,16:00～16:59,0.0596,0.0551,0.0576,
新宿 (Shinjuku),2011-07-23,15:00～15:59,0.0596,0.0536,0.0571,
新宿 (Shinjuku),2011-07-23,14:00～14:59,0.0602,0.0541,0.0572,
新宿 (Shinjuku),2011-07-23,13:00～13:59,0.0606,0.0545,0.0578,
新宿 (Shinjuku),2011-07-23,12:00～12:59,0.0600,0.0552,0.0577,
新宿 (Shinjuku),2011-07-23,11:00～11:59,0.0600,0.0554,0.0576,
新宿 (Shinjuku),2011-07-23,10:00～10:59,0.0600,0.0548,0.0577,
新宿 (Shinjuku),2011-07-23,09:00～09:59,0.0601,0.0541,0.0574,
新宿 (Shinjuku),2011-07-23,08:00～08:59,0.0607,0.0551,0.0576,
新宿 (Shinjuku),2011-07-23,07:00～07:59,0.0603,0.0553,0.0573,
新宿 (Shinjuku),2011-07-23,06:00～06:59,0.0594,0.0551,0.0575,
新宿 (Shinjuku),2011-07-23,05:00～05:59,0.0592,0.0547,0.0571,
新宿 (Shinjuku),2011-07-23,04:00～04:59,0.0604,0.0542,0.0571,
新宿 (Shinjuku),2011-07-23,03:00～03:59,0.0593,0.0545,0.0568,
新宿 (Shinjuku),2011-07-23,02:00～02:59,0.0603,0.0548,0.0568,
新宿 (Shinjuku),2011-07-23,01:00～01:59,0.0612,0.0548,0.0570,
新宿 (Shinjuku),2011-07-23,00:00～00:59,0.0593,0.0547,0.0571,
新宿 (Shinjuku),2011-07-22,23:00～23:59,0.0594,0.0550,0.0568,
新宿 (Shinjuku),2011-07-22,22:00～22:59,0.0594,0.0542,0.0568,
新宿 (Shinjuku),2011-07-22,21:00～21:59,0.0595,0.0545,0.0569,
新宿 (Shinjuku),2011-07-22,20:00～20:59,0.0593,0.0542,0.0568,
新宿 (Shinjuku),2011-07-22,19:00～19:59,0.0589,0.0533,0.0566,
新宿 (Shinjuku),2011-07-22,18:00～18:59,0.0608,0.0544,0.0571,
新宿 (Shinjuku),2011-07-22,17:00～17:59,0.0595,0.0529,0.0568,
新宿 (Shinjuku),2011-07-22,16:00～16:59,0.0593,0.0537,0.0569,
新宿 (Shinjuku),2011-07-22,15:00～15:59,0.0600,0.0550,0.0575,
新宿 (Shinjuku),2011-07-22,14:00～14:59,0.0594,0.0537,0.0570,
新宿 (Shinjuku),2011-07-22,13:00～13:59,0.0603,0.0544,0.0574,
新宿 (Shinjuku),2011-07-22,12:00～12:59,0.0596,0.0548,0.0574,
新宿 (Shinjuku),2011-07-22,11:00～11:59,0.0594,0.0548,0.0570,
新宿 (Shinjuku),2011-07-22,10:00～10:59,0.0596,0.0546,0.0571,
新宿 (Shinjuku),2011-07-22,09:00～09:59,0.0602,0.0541,0.0569,
新宿 (Shinjuku),2011-07-22,08:00～08:59,0.0611,0.0547,0.0572,
新宿 (Shinjuku),2011-07-22,07:00～07:59,0.0607,0.0562,0.0580,
新宿 (Shinjuku),2011-07-22,06:00～06:59,0.0598,0.0548,0.0574,
新宿 (Shinjuku),2011-07-22,05:00～05:59,0.0600,0.0548,0.0572,
新宿 (Shinjuku),2011-07-22,04:00～04:59,0.0593,0.0538,0.0572,
新宿 (Shinjuku),2011-07-22,03:00～03:59,0.0600,0.0544,0.0571,
新宿 (Shinjuku),2011-07-22,02:00～02:59,0.0602,0.0548,0.0573,
新宿 (Shinjuku),2011-07-22,01:00～01:59,0.0592,0.0546,0.0568,
新宿 (Shinjuku),2011-07-22,00:00～00:59,0.0603,0.0545,0.0571,
新宿 (Shinjuku),2011-07-21,23:00～23:59,0.0601,0.0539,0.0568,
新宿 (Shinjuku),2011-07-21,22:00～22:59,0.0593,0.0544,0.0567,
新宿 (Shinjuku),2011-07-21,21:00～21:59,0.0589,0.0542,0.0567,
新宿 (Shinjuku),2011-07-21,20:00～20:59,0.0588,0.0538,0.0566,
新宿 (Shinjuku),2011-07-21,19:00～19:59,0.0600,0.0538,0.0569,
新宿 (Shinjuku),2011-07-21,18:00～18:59,0.0593,0.0541,0.0566,
新宿 (Shinjuku),2011-07-21,17:00～17:59,0.0593,0.0534,0.0566,
新宿 (Shinjuku),2011-07-21,16:00～16:59,0.0600,0.0550,0.0571,
新宿 (Shinjuku),2011-07-21,15:00～15:59,0.0600,0.0547,0.0570,
新宿 (Shinjuku),2011-07-21,14:00～14:59,0.0593,0.0545,0.0571,
新宿 (Shinjuku),2011-07-21,13:00～13:59,0.0598,0.0544,0.0570,
新宿 (Shinjuku),2011-07-21,12:00～12:59,0.0594,0.0548,0.0572,
新宿 (Shinjuku),2011-07-21,11:00～11:59,0.0595,0.0548,0.0576,
新宿 (Shinjuku),2011-07-21,10:00～10:59,0.0610,0.0542,0.0576,
新宿 (Shinjuku),2011-07-21,09:00～09:59,0.0601,0.0548,0.0576,
新宿 (Shinjuku),2011-07-21,08:00～08:59,0.0610,0.0557,0.0583,
新宿 (Shinjuku),2011-07-21,07:00～07:59,0.0610,0.0560,0.0584,
新宿 (Shinjuku),2011-07-21,06:00～06:59,0.0604,0.0555,0.0583,
新宿 (Shinjuku),2011-07-21,05:00～05:59,0.0606,0.0553,0.0583,
新宿 (Shinjuku),2011-07-21,04:00～04:59,0.0621,0.0564,0.0591,
新宿 (Shinjuku),2011-07-21,03:00～03:59,0.0600,0.0558,0.0577,
新宿 (Shinjuku),2011-07-21,02:00～02:59,0.0607,0.0550,0.0573,
新宿 (Shinjuku),2011-07-21,01:00～01:59,0.0602,0.0554,0.0576,
新宿 (Shinjuku),2011-07-21,00:00～00:59,0.0598,0.0551,0.0573,
新宿 (Shinjuku),2011-07-20,23:00～23:59,0.0600,0.0547,0.0574,
新宿 (Shinjuku),2011-07-20,22:00～22:59,0.0595,0.0549,0.0575,
新宿 (Shinjuku),2011-07-20,21:00～21:59,0.0610,0.0551,0.0577,
新宿 (Shinjuku),2011-07-20,20:00～20:59,0.0617,0.0551,0.0580,
新宿 (Shinjuku),2011-07-20,19:00～19:59,0.0597,0.0551,0.0575,
新宿 (Shinjuku),2011-07-20,18:00～18:59,0.0607,0.0549,0.0572,
新宿 (Shinjuku),2011-07-20,17:00～17:59,0.0598,0.0546,0.0573,
新宿 (Shinjuku),2011-07-20,16:00～16:59,0.0603,0.0548,0.0577,
新宿 (Shinjuku),2011-07-20,15:00～15:59,0.0598,0.0553,0.0574,
新宿 (Shinjuku),2011-07-20,14:00～14:59,0.0603,0.0548,0.0580,
新宿 (Shinjuku),2011-07-20,13:00～13:59,0.0599,0.0555,0.0575,
新宿 (Shinjuku),2011-07-20,12:00～12:59,0.0606,0.0541,0.0577,
新宿 (Shinjuku),2011-07-20,11:00～11:59,0.0609,0.0553,0.0580,
新宿 (Shinjuku),2011-07-20,10:00～10:59,0.0600,0.0559,0.0578,
新宿 (Shinjuku),2011-07-20,09:00～09:59,0.0588,0.0552,0.0571,
新宿 (Shinjuku),2011-07-20,08:00～08:59,0.0590,0.0551,0.0573,
新宿 (Shinjuku),2011-07-20,07:00～07:59,0.0597,0.0549,0.0574,
新宿 (Shinjuku),2011-07-20,06:00～06:59,0.0600,0.0545,0.0575,
新宿 (Shinjuku),2011-07-20,05:00～05:59,0.0596,0.0540,0.0570,
新宿 (Shinjuku),2011-07-20,04:00～04:59,0.0594,0.0546,0.0572,
新宿 (Shinjuku),2011-07-20,03:00～03:59,0.0595,0.0551,0.0572,
新宿 (Shinjuku),2011-07-20,02:00～02:59,0.0597,0.0540,0.0569,
新宿 (Shinjuku),2011-07-20,01:00～01:59,0.0600,0.0544,0.0571,
新宿 (Shinjuku),2011-07-20,00:00～00:59,0.0595,0.0550,0.0571,
新宿 (Shinjuku),2011-07-19,23:00～23:59,0.0596,0.0538,0.0570,
新宿 (Shinjuku),2011-07-19,22:00～22:59,0.0594,0.0544,0.0567,
新宿 (Shinjuku),2011-07-19,21:00～21:59,0.0608,0.0547,0.0568,
新宿 (Shinjuku),2011-07-19,20:00～20:59,0.0591,0.0548,0.0568,
新宿 (Shinjuku),2011-07-19,19:00～19:59,0.0596,0.0539,0.0570,
新宿 (Shinjuku),2011-07-19,18:00～18:59,0.0596,0.0541,0.0571,
新宿 (Shinjuku),2011-07-19,17:00～17:59,0.0599,0.0537,0.0572,
新宿 (Shinjuku),2011-07-19,16:00～16:59,0.0593,0.0541,0.0571,
新宿 (Shinjuku),2011-07-19,15:00～15:59,0.0601,0.0536,0.0572,
新宿 (Shinjuku),2011-07-19,14:00～14:59,0.0595,0.0548,0.0573,
新宿 (Shinjuku),2011-07-19,13:00～13:59,0.0596,0.0545,0.0571,
新宿 (Shinjuku),2011-07-19,12:00～12:59,0.0602,0.0546,0.0574,
新宿 (Shinjuku),2011-07-19,11:00～11:59,0.0596,0.0552,0.0571,
新宿 (Shinjuku),2011-07-19,10:00～10:59,0.0596,0.0558,0.0573,
新宿 (Shinjuku),2011-07-19,09:00～09:59,0.0599,0.0555,0.0574,
新宿 (Shinjuku),2011-07-19,08:00～08:59,0.0603,0.0540,0.0571,
新宿 (Shinjuku),2011-07-19,07:00～07:59,0.0596,0.0544,0.0576,
新宿 (Shinjuku),2011-07-19,06:00～06:59,0.0609,0.0554,0.0574,
新宿 (Shinjuku),2011-07-19,05:00～05:59,0.0599,0.0551,0.0574,
新宿 (Shinjuku),2011-07-19,04:00～04:59,0.0586,0.0551,0.0572,
新宿 (Shinjuku),2011-07-19,03:00～03:59,0.0595,0.0547,0.0573,
新宿 (Shinjuku),2011-07-19,02:00～02:59,0.0593,0.0546,0.0572,
新宿 (Shinjuku),2011-07-19,01:00～01:59,0.0596,0.0550,0.0574,
新宿 (Shinjuku),2011-07-19,00:00～00:59,0.0614,0.0551,0.0573,
新宿 (Shinjuku),2011-07-18,23:00～23:59,0.0598,0.0552,0.0571,
新宿 (Shinjuku),2011-07-18,22:00～22:59,0.0595,0.0551,0.0573,
新宿 (Shinjuku),2011-07-18,21:00～21:59,0.0603,0.0551,0.0570,
新宿 (Shinjuku),2011-07-18,20:00～20:59,0.0596,0.0548,0.0575,
新宿 (Shinjuku),2011-07-18,19:00～19:59,0.0602,0.0548,0.0573,
新宿 (Shinjuku),2011-07-18,18:00～18:59,0.0590,0.0548,0.0571,
新宿 (Shinjuku),2011-07-18,17:00～17:59,0.0606,0.0551,0.0573,
新宿 (Shinjuku),2011-07-18,16:00～16:59,0.0603,0.0551,0.0575,
新宿 (Shinjuku),2011-07-18,15:00～15:59,0.0606,0.0548,0.0573,
新宿 (Shinjuku),2011-07-18,14:00～14:59,0.0600,0.0549,0.0573,
新宿 (Shinjuku),2011-07-18,13:00～13:59,0.0599,0.0551,0.0575,
新宿 (Shinjuku),2011-07-18,12:00～12:59,0.0610,0.0548,0.0576,
新宿 (Shinjuku),2011-07-18,11:00～11:59,0.0600,0.0542,0.0575,
新宿 (Shinjuku),2011-07-18,10:00～10:59,0.0607,0.0551,0.0576,
新宿 (Shinjuku),2011-07-18,09:00～09:59,0.0613,0.0554,0.0580,
新宿 (Shinjuku),2011-07-18,08:00～08:59,0.0605,0.0552,0.0581,
新宿 (Shinjuku),2011-07-18,07:00～07:59,0.0610,0.0558,0.0580,
新宿 (Shinjuku),2011-07-18,06:00～06:59,0.0605,0.0542,0.0578,
新宿 (Shinjuku),2011-07-18,05:00～05:59,0.0595,0.0554,0.0576,
新宿 (Shinjuku),2011-07-18,04:00～04:59,0.0614,0.0549,0.0574,
新宿 (Shinjuku),2011-07-18,03:00～03:59,0.0587,0.0553,0.0570,
新宿 (Shinjuku),2011-07-18,02:00～02:59,0.0599,0.0548,0.0572,
新宿 (Shinjuku),2011-07-18,01:00～01:59,0.0600,0.0549,0.0575,
新宿 (Shinjuku),2011-07-18,00:00～00:59,0.0604,0.0545,0.0572,
